Back to catalog

FLTSATCOM 8

USA 46

AliveMilitaryGEO
NORAD 20253·PAYLOAD·🇺🇸 United States

Launched Sep 25, 1989 from Cape Canaveral Space Force Station

Loading…

TLE

FreshSource: Space-Track

Epoch: Sep 14, 2026, 14:24 UTC

1 20253U 89077A   26257.60014778 -.00000372  00000-0  00000-0 0  9991
2 20253  12.3979 350.6124 0002439 209.4757 135.3305  1.00273503261457

Track FLTSATCOM 8 in real time with AllMySat

Download on the App Store